Home > Weather > Fürstenfeld > Past weeks

Flag for Austria Weather for the Past 2 Weeks in Fürstenfeld, Styria, Austria

Now
70 °F

Mild.


Feels Like: 77 °F
Forecast: 45 / 67 °F
Wind: 2 mph from Southwest

Location: Murska Sobota

Current Time: May 6, 2016 at 5:07:46 PM

Latest Report: May 6, 2016 at 4:00 PM


Visibility: N/A

Pressure: 30.03 "Hg

Humidity: 47%

Dew Point: 49 °F

Location of FürstenfeldLocation

Historic Weather in Fürstenfeld — Graph

°F

Fürstenfeld Temperature Yesterday

Maximum temperature yesterday: 66 °F (at 5:00 PM)
Minimum temperature yesterday: 48 °F (at 6:00 AM)
Average temperature yesterday: 57 °F

High & Low Weather Summary for the Past Weeks

 TemperatureHumidityPressure
High72 °F (Apr 22, 4:00 PM)98% (Apr 27, 10:00 PM)30.24 "Hg (Apr 27, 10:00 PM)
Low27 °F (Apr 26, 6:00 AM)29% (Apr 25, 6:00 PM)29.56 "Hg (Apr 23, 7:00 PM)
Average51 °F72%29.96 "Hg
* Reported Apr 21 3:00 PM — May 6 3:00 PM, Fürstenfeld, Weather by CustomWeather, © 2016

Note: Actual official high and low records may vary slightly from our data, if they occured in-between our weather recording intervals... More about our weather records

Advertising

Fürstenfeld Weather History for the Previous 24 Hours

Scroll right to see more
 ConditionsComfort  
Time TempWeatherWind HumidityBarometerVisibility
3:00 PM
Fri, May 6
69 °FPartly sunny.2 mph50%30.06 "Hg12 mi
2:00 PM70 °FMild.1 mph55%30.07 "HgN/A
1:00 PMN/A1 mphN/AN/AN/A
12:00 PMN/A1 mphN/AN/AN/A
11:00 AM64 °FMild.1 mph64%30.12 "HgN/A
10:00 AM61 °FCool.1 mph70%30.13 "HgN/A
9:00 AM59 °FCool.1 mph73%30.14 "HgN/A
8:00 AMN/A2 mphN/AN/AN/A
7:00 AM52 °FCool.1 mph89%30.15 "HgN/A
6:00 AM49 °FCool.2 mph92%30.14 "HgN/A
5:00 AM50 °FCool.2 mph89%30.14 "HgN/A
4:00 AM50 °FCool.2 mph90%30.15 "HgN/A
3:00 AM50 °FCool.2 mph92%30.16 "HgN/A
2:00 AM49 °FCool.1 mph93%30.17 "HgN/A
1:00 AM49 °FCool.1 mph92%30.19 "HgN/A
12:00 AM49 °FCool.No wind93%30.20 "HgN/A
11:00 PM
Thu, May 5
N/ANo windN/AN/AN/A
10:00 PMN/A1 mphN/AN/AN/A
9:00 PM57 °FCool.1 mph74%30.19 "HgN/A
8:00 PM61 °FCool.3 mph67%30.16 "HgN/A
7:00 PM64 °FMild.5 mph57%30.14 "HgN/A
6:00 PM66 °FMild.5 mph57%30.14 "HgN/A
5:00 PM66 °FMild.5 mph51%30.15 "HgN/A
Weather by CustomWeather, © 2016

See weather overviewHow to use our weather pages